Regional Weather Roundup
Issued by NWS

Home | Current Version | Previous Version | Graphics & Text | Print | Product List | Glossary On
Versions: 1 2 3 4 5 6 7 8 9 10 11 12 13 14 15 16 17 18 19 20 21 22 23 24 25 26 27 28
000
ASUS45 KBOU 160610
RWRCO

WEATHER ROUNDUP FOR COLORADO
NATIONAL WEATHER SERVICE DENVER/BOULDER CO
1100 PM MST FRI DEC 15 2017

NOTE: "FAIR" INDICATES FEW OR NO CLOUDS BELOW 12000 FEET WITH NO
SIGNIFICANT WEATHER AND/OR OBSTRUCTIONS TO VISIBILITY.

COZ001>005-013-030-031-160700-
...NORTHWEST COLORADO...

CITY           SKY/WX    TMP DP  RH WIND       PRES   REMARKS
CRAIG          FAIR       8   3  80 CALM      30.03F
HAYDEN         FAIR      24  12  60 E14       30.03F WCI  12
MEEKER         FAIR      16   5  62 NE6       30.02F WCI   7
RABBIT EARS PA FAIR      27  -2  28 W7        30.05F WCI  19
STEAMBOAT SPGS FAIR      19  11  69 CALM      30.03S
WALDEN         FAIR      27   5  39 S10       30.00S WCI  17
$$

COZ006>008-011-160700-
...WEST CENTRAL VALLEYS...

CITY           SKY/WX    TMP DP  RH WIND       PRES   REMARKS
GRAND JUNCTION FAIR      25   8  48 E6        30.06F WCI  18
MONTROSE       FAIR      20   8  60 S8        30.10S WCI  10
EAGLE          FAIR      15   8  73 CALM      30.10F
RIFLE          FAIR      20   5  52 CALM      30.08F
DELTA          FAIR      25   3  40 CALM      30.08F
NUCLA          FAIR      27  -6  24 SE8       30.11F WCI  18
$$

COZ017>023-064>068-160700-
...SOUTHWEST COLORADO...

CITY           SKY/WX    TMP DP  RH WIND       PRES   REMARKS
DURANGO        FAIR      21  13  71 N8        30.10F WCI  11
CORTEZ         FAIR      14   1  56 E7        30.10F WCI   4
PAGOSA SPRINGS FAIR      20   9  63 CALM      30.12S
TELLURIDE      FAIR      30  -1  25 CALM      30.12S
WOLF CREEK PAS FAIR      30   0  27 SW9       30.23F WCI  22
$$

COZ009-010-012-014-032>034-037-058>063-160700-
...CENTRAL COLORADO...

CITY           SKY/WX    TMP DP  RH WIND       PRES   REMARKS
ASPEN          FAIR      18   8  65 S6        30.05F WCI  10
BUENA VISTA    FAIR      22  10  58 NW5       30.03F WCI  16
COPPER MTN     NOT AVBL
BERTHOUD PASS  FAIR      23  12  63 W7G22     30.12R WCI  15
COTTONWOOD PAS FAIR      41   3  20 N5        30.05F
GUNNISON       FAIR       9   3  77 SE3       30.13F
KREMMLING      FAIR      12   7  79 CALM      30.08F
LEADVILLE      FAIR      27   4  37 NE7       30.03F WCI  19
MONARCH PASS   FAIR      25  -8  24 W36       30.22F WCI   7
SALIDA         FAIR      28   7  41 CALM      30.09S
SUNLIGHT       FAIR      25  -8  24 SW14G20   30.13F WCI  13
WILKERSON PASS FAIR      32   1  27 W8G16     30.10F WCI  25
$$

COZ069>075-160700-
...SAN LUIS VALLEY/SANGRE DE CRISTO MOUNTAINS...

CITY           SKY/WX    TMP DP  RH WIND       PRES   REMARKS
ALAMOSA        FAIR       7   3  84 W9        30.10F WCI  -7
DEL NORTE      FAIR      17   8  67 W8        30.11F WCI   6
LA VETA PASS   FAIR      27  -2  28 SW28        N/A  WCI  11
SAGUACHE       FAIR      18   9  68 NW13      30.11F WCI   4
$$

COZ035-036-038>040-160700-
...NORTHERN COLORADO FRONT RANGE...

CITY           SKY/WX    TMP DP  RH WIND       PRES   REMARKS
DENVER INTL AP MOCLDY    42  12  29 SW8       29.81F
DMNS CITY PARK NOT AVBL
AURORA         MOCLDY    40  12  31 S10       29.82F
FRONT RANGE AP FAIR      46  14  27 S9G20     29.82F
ERIE MUNI ARPT FAIR      44   9  23 N5G16     29.85F
BOULDER MUN AP FAIR      50  10  20 CALM      29.79F
CENTENNIAL     FAIR      43  13  29 S9        29.83F
BROOMFIELD     FAIR      55   7  14 NW9       29.81F
FORT COLLINS   FAIR      38  20  48 SE3       29.79F
LONGMONT       FAIR      38  20  47 W6        29.81F
$$

COZ041-046-047-076>085-087-088-160700-
...PIKES PEAK/PALMER DIVIDE AND SOUTHERN FOOTHILLS...

CITY           SKY/WX    TMP DP  RH WIND       PRES   REMARKS
COLO. SPRINGS  FAIR      42   8  24 N7        29.87F
A. F. ACADEMY  FAIR      31   9  38 N10       29.87F WCI  23
SCHRIEVER AFB  FAIR      49   4  15 NW10      29.86F
CHEYENNE MTN   FAIR      49   4  16 S6        29.84F
ELLICOTT         N/A    N/A N/A N/A NE9       29.85F
FALCON         FAIR      36   5  27 NW8       29.90S
FORT CARSON    FAIR      32  14  46 NW8       29.84F WCI  25
LIMON          FAIR      22  12  65 N3        29.84F
MONUMENT HILL  FAIR      34  12  40 S8        29.91S WCI  27
CANON CITY     FAIR      46  10  23 W12       29.88S
WALSENBURG     FAIR      45   3  18 SW17      29.90F
TRINIDAD       FAIR      35  12  38 W12       29.91R WCI  27
$$

COZ042>045-048>051-090-091-160700-
...NORTHEAST COLORADO...

CITY           SKY/WX    TMP DP  RH WIND       PRES   REMARKS
GREELEY ARPT   FAIR      28  18  66 N7        29.80F WCI  21
AKRON          FAIR      41  11  29 SW14      29.79F
BURLINGTON     FAIR      33  13  43 SW10      29.80F WCI  25
WRAY           FAIR      32   9  37 W8        29.78F WCI  25
YUMA           FAIR      30  10  43 W9        29.78F WCI  22
STERLING       FAIR      25  12  58 SW8       29.78S WCI  16
HOLYOKE        FAIR      28  12  50 W9        29.77F WCI  20
FORT MORGAN    FAIR      31  17  56 W7        29.79F WCI  24
$$

COZ086-089-092>099-160700-
...SOUTHEAST COLORADO...

CITY           SKY/WX    TMP DP  RH WIND       PRES   REMARKS
PUEBLO         FAIR      28  12  51 W3        29.85F
LA JUNTA       FAIR      33  14  45 SW7       29.84F WCI  27
LAMAR          FAIR      27  16  63 SW6       29.83S WCI  20
SPRINGFIELD      N/A     31  15  52 SW9       29.85F WCI  23
$$




USA.gov is the U.S. government's official web portal to all federal, state and local government web resources and services.